Volver al catálogo

INMARSAT 4-F1

ActivoComunicacionesGEO
NORAD 28628·PAYLOAD·🇮🇲 IM

Lanzado Mar 11, 2005 desde Cape Canaveral Space Force Station

Loading…

TLE

ActualizadoSource: Space-Track

Época: Sep 14, 2026, 15:37 UTC

1 28628U 05009A   26257.65121382  .00000027  00000-0  00000-0 0  9999
2 28628   5.2928  42.8154 0002507 137.0402 226.3326  1.00273328 78576

Sigue INMARSAT 4-F1 en tiempo real con AllMySat

Download on the App Store